CDT,Max TemperatureF,Mean TemperatureF,Min TemperatureF,Max Dew PointF,MeanDew PointF,Min DewpointF,Max Humidity, Mean Humidity, Min Humidity, Max Sea Level PressureIn, Mean Sea Level PressureIn, Min Sea Level PressureIn, Max VisibilityMiles, Mean VisibilityMiles, Min VisibilityMiles, Max Wind SpeedMPH, Mean Wind SpeedMPH, Max Gust SpeedMPH,PrecipitationIn, CloudCover, Events, WindDirDegrees
2012-3-1,50,42,34,33,30,27,82,66,50,29.92,29.81,29.66,10,10,10,21,9,28,0.00,4,,292
2012-3-2,40,36,32,37,33,25,96,86,75,29.76,29.53,29.34,10,6,2,24,12,32,0.28,5,Rain-Snow,344
2012-3-3,35,31,26,24,21,19,78,67,56,29.92,29.85,29.76,10,10,10,25,13,32,0.00,7,,285
2012-3-4,36,30,23,27,23,17,92,72,52,30.10,29.94,29.87,10,6,0,15,7,20,0.07,6,Fog-Snow,310
2012-3-5,38,27,16,27,22,14,96,78,59,30.42,30.29,30.09,10,10,8,21,9,28,0.00,1,,228
2012-3-6,72,54,35,38,31,25,70,45,20,30.18,29.99,29.87,10,10,10,36,21,45,0.00,0,,187
2012-3-7,68,60,52,53,44,34,65,56,46,29.96,29.90,29.81,10,10,10,32,21,40,T,5,Rain,191
2012-3-8,62,48,33,52,33,22,96,68,40,30.36,30.09,29.87,10,8,2,25,10,31,0.48,5,Rain,298
2012-3-9,45,38,30,23,14,9,64,44,24,30.58,30.51,30.36,10,10,10,15,7,22,0.00,0,,329
2012-3-10,62,46,29,29,23,15,63,44,25,30.49,30.36,30.25,10,10,10,23,12,30,0.00,0,,189
2012-3-11,67,51,35,50,37,27,83,59,34,30.27,30.12,29.93,10,9,2,24,11,32,0.18,4,Rain,170
2012-3-12,67,59,51,56,52,47,100,79,58,29.95,29.86,29.78,10,8,2,26,12,36,0.09,6,Rain,219
2012-3-13,74,57,39,50,45,39,100,69,38,30.12,30.06,29.96,10,6,0,13,2,16,0.00,0,Fog,180
2012-3-14,81,68,54,61,56,48,93,69,45,30.03,29.97,29.90,10,10,7,25,11,31,0.00,1,,201
2012-3-15,81,70,58,61,58,54,90,68,45,30.04,29.99,29.95,10,10,7,26,9,32,T,1,,231
2012-3-16,78,67,56,60,55,52,86,66,45,30.07,30.03,29.98,10,10,9,23,10,31,0.00,1,,187
2012-3-17,78,68,58,63,58,51,93,75,56,30.08,30.03,29.93,10,8,2,23,9,30,0.00,2,,174
2012-3-18,81,69,57,62,58,54,93,73,52,30.05,29.98,29.93,10,10,10,23,11,29,0.00,2,,177
2012-3-19,81,72,63,63,59,52,93,69,45,29.99,29.91,29.82,10,9,6,29,14,36,0.24,3,Rain,170
2012-3-20,81,72,63,58,52,47,73,52,30,29.98,29.92,29.87,10,10,10,32,15,40,0.00,0,,164
2012-3-21,82,74,66,56,54,51,68,52,36,30.05,29.99,29.96,10,10,10,28,11,35,0.00,2,,162
2012-3-22,70,66,62,62,59,53,87,72,57,30.06,30.00,29.97,10,10,5,16,9,23,0.11,7,Rain,141
2012-3-23,69,60,50,61,53,48,100,75,49,29.97,29.91,29.78,10,6,0,15,4,18,0.02,5,Fog-Rain-Thunderstorm,161
2012-3-24,71,60,48,55,51,47,100,78,55,29.95,29.86,29.79,10,8,2,12,3,17,0.00,2,,350
2012-3-25,76,65,54,56,53,49,86,65,43,30.08,30.02,29.96,10,9,6,21,4,23,0.00,4,,10
2012-3-26,54,49,43,50,34,28,89,65,41,30.31,30.23,30.09,10,10,7,23,15,30,T,5,Rain,79
2012-3-27,75,60,44,56,44,32,78,61,43,30.17,29.99,29.85,10,10,10,26,14,33,0.02,2,Rain-Thunderstorm,180
2012-3-28,73,62,51,57,42,31,84,55,25,30.01,29.95,29.84,10,10,10,18,7,26,0.00,0,,311
2012-3-29,60,53,45,43,39,36,76,64,51,30.10,30.01,29.90,10,10,10,16,9,22,0.00,3,,94
2012-3-30,69,58,47,54,47,38,86,69,51,29.90,29.78,29.69,10,10,6,17,9,23,0.00,2,,3
2012-3-31,65,53,41,45,41,37,86,65,44,29.98,29.90,29.77,10,8,6,15,7,18,0.02,6,,102